Brno, Czech Republic

2:25 PM CET on February 21, 2017 (GMT +0100)
Turany

Weather History for LKTB - March, 2014

Change the Weather History Date:

Saturday, March 8, 2014

  Actual Average Record
Temperature  
Mean Temperature 44 °F -  
Max Temperature 57 °F 50 °F - ()
Min Temperature 30 °F 34 °F - ()
Degree Days  
Heating Degree Days 22    
Moisture  
Dew Point 30 °F    
Average Humidity 60    
Maximum Humidity 87    
Minimum Humidity 25    
Precipitation  
Precipitation 0.00 in 0.03 in - ()
Sea Level Pressure  
Sea Level Pressure 30.46 in    
Wind  
Wind Speed 6 mph ()    
Max Wind Speed 12 mph    
Max Gust Speed -    
Visibility 5.1 miles    
Events      
T = Trace of Precipitation, MM = Missing Value Source: Averaged Metar Reports

Daily Weather History Graph

Daily Weather History Graph

Search for Another Location

Airport or City:

Trip Planner

Search our weather history database for the weather conditions in past years. The results will help you decide how hot, cold, wet, or windy it might be!

Date:

Astronomy

Mar. 08, 2014 Rise Set
Actual Time 6:21 AM CET 5:47 PM CET
Civil Twilight 5:50 AM CET 6:18 PM CET
Nautical Twilight 5:13 AM CET 6:55 PM CET
Astronomical Twilight 4:36 AM CET 7:32 PM CET
Moon 10:15 AM CET (3/8) 1:02 AM CET (3/8)
Length of Visible Light 12h 28m
Length of Day
11h 25m
Waxing Crescent, 49% of the Moon is Illuminated
Mar 8
Waxing Crescent
Mar 8
First Quarter
Mar 16
Full
Mar 24
Last Quarter
Mar 30
New

Hourly Weather History & Observations

Time (CET) Temp. Windchill Dew Point Humidity Pressure Visibility Wind Dir Wind Speed Gust Speed Precip Events Conditions
12:00 AM 37 °F - 29 °F 64% 30.37 in 6 mi NW 6.7 mph - -   Mostly Cloudy
12:00 AM 37.4 °F 32.8 °F 30.2 °F 75% 30.33 in 6.2 mi NW 5.8 mph - N/A   Mostly Cloudy
12:30 AM 37.4 °F 32.8 °F 30.2 °F 75% 30.33 in 5.0 mi NW 5.8 mph - N/A   Mostly Cloudy
1:00 AM 37 °F - 29 °F 64% 30.39 in 5 mi WNW 8.9 mph - -   Mist
1:00 AM 37.4 °F 31.4 °F 30.2 °F 75% 30.33 in 5.0 mi NW 8.1 mph - N/A   Mostly Cloudy
1:30 AM 37.4 °F 29.8 °F 30.2 °F 75% 30.33 in 5.0 mi NW 11.5 mph - N/A   Mostly Cloudy
2:00 AM 35 °F - 28 °F 68% 30.40 in 5 mi NW 8.9 mph - -   Mist
2:00 AM 35.6 °F 29.2 °F 28.4 °F 75% 30.36 in 5.0 mi NNW 8.1 mph - N/A   Unknown
2:30 AM 33.8 °F 27.7 °F 28.4 °F 81% 30.36 in 5.0 mi NW 6.9 mph - N/A   Unknown
3:00 AM 34 °F - 28 °F 70% 30.41 in 4 mi NW 6.7 mph - -   Mist
3:00 AM 33.8 °F 29.6 °F 28.4 °F 81% 30.36 in 4.3 mi NNW 4.6 mph - N/A   Unknown
3:30 AM 33.8 °F 28.6 °F 28.4 °F 81% 30.36 in 4.3 mi NW 5.8 mph - N/A   Unknown
4:00 AM 33 °F - 28 °F 74% 30.43 in 4 mi NW 6.7 mph - -   Mist
4:00 AM 33.8 °F 28.6 °F 28.4 °F 81% 30.36 in 4.3 mi NW 5.8 mph - N/A   Unknown
4:30 AM 32.0 °F 28.7 °F 26.6 °F 80% 30.39 in 4.3 mi NW 3.5 mph - N/A   Unknown
5:00 AM 31 °F - 27 °F 79% 30.44 in 4 mi NNE 2.2 mph - -   Mist
5:00 AM 32.0 °F - 26.6 °F 80% 30.39 in 3.7 mi Variable 2.3 mph - N/A   Unknown
5:30 AM 32.0 °F 26.4 °F 28.4 °F 87% 30.39 in 3.7 mi NW 5.8 mph - N/A   Unknown
6:00 AM 30 °F - 26 °F 81% 30.46 in 4 mi WNW 4.5 mph - -   Mist
6:00 AM 30.2 °F - 26.6 °F 86% 30.42 in 3.7 mi Variable 1.2 mph - N/A   Unknown
6:30 AM 30.2 °F 23.4 °F 26.6 °F 86% 30.42 in 3.1 mi NW 6.9 mph - N/A   Mist
7:00 AM 32 °F - 27 °F 76% 30.49 in 4 mi NW 6.7 mph - -   Mist
7:00 AM 32.0 °F 25.6 °F 28.4 °F 87% 30.45 in 3.7 mi NW 6.9 mph - N/A   Unknown
7:30 AM 33.8 °F - 28.4 °F 81% 30.45 in 3.7 mi Variable 2.3 mph - N/A   Unknown
8:00 AM 36 °F - 29 °F 68% 30.51 in 4 mi SW 2.2 mph - -   Mist
8:00 AM 35.6 °F - 30.2 °F 81% 30.45 in 3.7 mi Variable 2.3 mph - N/A   Unknown
8:30 AM 37.4 °F 31.4 °F 30.2 °F 75% 30.48 in 4.3 mi WNW 8.1 mph - N/A   Unknown
9:00 AM 39 °F - 29 °F 58% 30.52 in 4 mi WNW 8.9 mph - -   Mist
9:00 AM 39.2 °F 33.6 °F 30.2 °F 70% 30.48 in 4.3 mi WNW 8.1 mph - N/A   Unknown
9:30 AM 42.8 °F 39.3 °F 30.2 °F 61% 30.48 in 5.0 mi West 5.8 mph - N/A   Unknown
10:00 AM 44 °F - 31 °F 48% 30.51 in 5 mi WNW 11.2 mph - -   Haze
10:00 AM 44.6 °F 39.7 °F 32.0 °F 61% 30.48 in 5.0 mi WNW 9.2 mph - N/A   Unknown
10:30 AM 46.4 °F 41.5 °F 32.0 °F 57% 30.48 in 5.6 mi WNW 10.4 mph - N/A   Unknown
11:00 AM 49 °F - 31 °F 37% 30.50 in 6 mi NW 8.9 mph - -   Haze
11:00 AM 48.2 °F - 32.0 °F 54% 30.48 in 5.6 mi NW 11.5 mph - N/A   Unknown
11:30 AM 50.0 °F - 32.0 °F 50% 30.48 in - NW 6.9 mph - N/A   Clear
12:00 PM 52 °F - 30 °F 30% 30.49 in 6 mi West 4.5 mph - -  
12:00 PM 51.8 °F - 30.2 °F 44% 30.48 in - Variable 3.5 mph - N/A   Clear
12:30 PM 51.8 °F - 30.2 °F 44% 30.48 in - SW 3.5 mph - N/A   Clear
1:00 PM 54 °F - 31 °F 29% 30.48 in 6 mi East 4.5 mph - -   Clear
1:00 PM 53.6 °F - 32.0 °F 44% 30.45 in - Variable 4.6 mph - N/A   Clear
1:30 PM 55.4 °F - 32.0 °F 41% 30.45 in - South 5.8 mph - N/A   Clear
2:00 PM 55 °F - 31 °F 28% 30.47 in 6 mi SE 2.2 mph - -   Clear
2:00 PM 53.6 °F - 32.0 °F 44% 30.45 in - Variable 2.3 mph - N/A   Clear
2:30 PM 55.4 °F - 32.0 °F 41% 30.45 in - East 3.5 mph - N/A   Clear
3:00 PM 56 °F - 30 °F 25% 30.46 in 6 mi SSE 2.2 mph - -   Clear
3:00 PM 55.4 °F - 32.0 °F 41% 30.45 in - ESE 3.5 mph - N/A   Clear
3:30 PM 55.4 °F - 32.0 °F 41% 30.45 in - Variable 1.2 mph - N/A   Clear
4:00 PM 56 °F - 30 °F 25% 30.46 in 7 mi East 2.2 mph - -   Clear
4:00 PM 55.4 °F - 32.0 °F 41% 30.45 in - Variable 2.3 mph - N/A   Clear
4:30 PM 55.4 °F - 32.0 °F 41% 30.45 in - Variable 2.3 mph - N/A   Clear
5:00 PM 54 °F - 31 °F 29% 30.47 in 7 mi East 2.2 mph - -   Clear
5:00 PM 53.6 °F - 32.0 °F 44% 30.45 in - East 2.3 mph - N/A   Clear
5:30 PM 51.8 °F - 33.8 °F 50% 30.45 in - North 9.2 mph - N/A   Clear
6:00 PM 51 °F - 33 °F 37% 30.49 in 6 mi NNE 6.7 mph - -   Haze
6:00 PM 51.8 °F - 33.8 °F 50% 30.48 in 5.6 mi NNE 5.8 mph - N/A   Unknown
6:30 PM 50.0 °F - 33.8 °F 54% 30.48 in 5.6 mi NE 8.1 mph - N/A   Unknown
7:00 PM 48 °F - 32 °F 42% 30.52 in 6 mi North 8.9 mph - -  
7:00 PM 48.2 °F - 32.0 °F 54% 30.51 in - North 8.1 mph - N/A   Clear
7:30 PM 46.4 °F 42.4 °F 32.0 °F 57% 30.51 in - ENE 8.1 mph - N/A   Clear
8:00 PM 45 °F - 31 °F 46% 30.55 in 7 mi NE 8.9 mph - -   Clear
8:00 PM 44.6 °F 39.7 °F 32.0 °F 61% 30.51 in - NE 9.2 mph - N/A   Clear
8:30 PM 44.6 °F 40.7 °F 32.0 °F 61% 30.51 in - NE 6.9 mph - N/A   Clear
9:00 PM 41 °F - 31 °F 57% 30.57 in 7 mi WNW 2.2 mph - -  
9:00 PM 41.0 °F 39.0 °F 32.0 °F 70% 30.54 in - North 3.5 mph - N/A   Clear
9:30 PM 42.8 °F 41.1 °F 30.2 °F 61% 30.54 in - North 3.5 mph - N/A   Clear
10:00 PM 42 °F - 30 °F 51% 30.57 in 7 mi North 8.9 mph - -  
10:00 PM 42.8 °F 37.5 °F 30.2 °F 61% 30.54 in - North 9.2 mph - N/A   Clear
10:30 PM 42.8 °F 37.0 °F 30.2 °F 61% 30.54 in - North 10.4 mph - N/A   Clear
11:00 PM 40 °F - 29 °F 55% 30.57 in 7 mi North 8.9 mph - -  
11:00 PM 39.2 °F 33.6 °F 30.2 °F 70% 30.54 in - North 8.1 mph - N/A   Clear
11:30 PM 37.4 °F - 30.2 °F 75% 30.54 in - Variable 2.3 mph - N/A   Clear